Location: Unspecified
(58.7730°N, 5.8460°E)
Time: 07:31:00
(UTC+02:00)

Okean 3 - Visible Passes

Search period start: 23 August 2014 00:00
Search period end: 02 September 2014 00:00
Orbit: 583 x 611 km, 82.5° (Epoch: 22 August)

Date Brightness Start Highest point End Pass type
(mag) Time Alt. Az. Time Alt. Az. Time Alt. Az.
25 Aug 6.6 04:26:49 10° E 04:27:58 11° ENE 04:29:06 10° ENE visible
26 Aug 6.3 04:35:40 10° ESE 04:38:05 15° E 04:40:32 10° NE visible
27 Aug 6.0 04:45:08 10° SE 04:48:16 21° E 04:51:24 10° NE visible
28 Aug 5.5 04:54:53 10° SSE 04:58:28 28° E 05:02:05 10° NNE visible
29 Aug 4.9 05:04:49 10° SSE 05:08:43 38° E 05:12:39 10° NNE visible
30 Aug 4.2 05:14:55 10° S 05:19:01 54° E 05:23:08 10° NNE visible
31 Aug 6.3 03:50:37 10° ESE 03:52:40 13° E 03:54:43 10° NE visible
31 Aug 3.6 05:25:09 10° S 05:29:21 77° E 05:33:35 10° NNE visible
01 Sep 6.0 03:59:55 10° SE 04:02:49 18° E 04:05:43 10° NE visible
01 Sep 3.4 05:35:31 10° SSW 05:39:43 77° WNW 05:43:58 10° NNE visible
